Year,Month,Day,Hour,Minute,Value (Times are PST for temperature in C)
2015,09,27,00,00,6.20
2015,09,27,00,01,6.20
2015,09,27,00,02,6.20
2015,09,27,00,03,6.20
2015,09,27,00,04,6.20
2015,09,27,00,05,6.20
2015,09,27,00,06,6.20
2015,09,27,00,07,6.20
2015,09,27,00,08,6.20
2015,09,27,00,09,6.20
2015,09,27,00,10,6.20
2015,09,27,00,11,6.20
2015,09,27,00,12,6.30
2015,09,27,00,13,6.30
2015,09,27,00,14,6.30
2015,09,27,00,15,6.30
2015,09,27,00,16,6.30
2015,09,27,00,17,6.30
2015,09,27,00,18,6.40
2015,09,27,00,19,6.40
2015,09,27,00,20,6.40
2015,09,27,00,21,6.40
2015,09,27,00,22,6.40
2015,09,27,00,23,6.40
2015,09,27,00,24,6.40
2015,09,27,00,25,6.40
2015,09,27,00,26,6.40
2015,09,27,00,27,6.50
2015,09,27,00,28,6.60
2015,09,27,00,29,6.60
2015,09,27,00,30,6.60
2015,09,27,00,31,6.60
2015,09,27,00,32,6.60
2015,09,27,00,33,6.60
2015,09,27,00,34,6.60
2015,09,27,00,35,6.60
2015,09,27,00,36,6.60
2015,09,27,00,37,6.60
2015,09,27,00,38,6.60
2015,09,27,00,39,6.60
2015,09,27,00,40,6.60
2015,09,27,00,41,6.60
2015,09,27,00,42,6.60
2015,09,27,00,43,6.60
2015,09,27,00,44,6.70
2015,09,27,00,45,6.70
2015,09,27,00,46,6.70
2015,09,27,00,47,6.70
2015,09,27,00,48,6.70
2015,09,27,00,49,6.70
2015,09,27,00,50,6.70
2015,09,27,00,51,6.70
2015,09,27,00,52,6.70
2015,09,27,00,53,6.70
2015,09,27,00,54,6.70
2015,09,27,00,55,6.70
2015,09,27,00,56,6.70
2015,09,27,00,57,6.70
2015,09,27,00,58,6.70
2015,09,27,00,59,6.70
2015,09,27,01,00,6.70
2015,09,27,01,01,6.70
2015,09,27,01,02,6.70
2015,09,27,01,03,6.70
2015,09,27,01,04,6.70
2015,09,27,01,05,6.70
2015,09,27,01,06,6.70
2015,09,27,01,07,6.70
2015,09,27,01,08,6.70
2015,09,27,01,09,6.70
2015,09,27,01,10,6.70
2015,09,27,01,11,6.70
2015,09,27,01,12,6.70
2015,09,27,01,13,6.60
2015,09,27,01,14,6.60
2015,09,27,01,15,6.60
2015,09,27,01,16,6.60
2015,09,27,01,17,6.60
2015,09,27,01,18,6.60
2015,09,27,01,19,6.60
2015,09,27,01,20,6.60
2015,09,27,01,21,6.60
2015,09,27,01,22,6.60
2015,09,27,01,23,6.60
2015,09,27,01,24,6.60
2015,09,27,01,25,6.60
2015,09,27,01,26,6.60
2015,09,27,01,27,6.60
2015,09,27,01,28,6.60
2015,09,27,01,29,6.60
2015,09,27,01,30,6.60
2015,09,27,01,31,6.60
2015,09,27,01,32,6.50
2015,09,27,01,33,6.40
2015,09,27,01,34,6.40
2015,09,27,01,35,6.40
2015,09,27,01,36,6.40
2015,09,27,01,37,6.40
2015,09,27,01,38,6.40
2015,09,27,01,39,6.40
2015,09,27,01,40,6.40
2015,09,27,01,41,6.40
2015,09,27,01,42,6.40
2015,09,27,01,43,6.40
2015,09,27,01,44,6.40
2015,09,27,01,45,6.40
2015,09,27,01,46,6.40
2015,09,27,01,47,6.40
2015,09,27,01,48,6.40
2015,09,27,01,49,6.40
2015,09,27,01,50,6.40
2015,09,27,01,51,6.40
2015,09,27,01,52,6.40
2015,09,27,01,53,6.40
2015,09,27,01,54,6.40
2015,09,27,01,55,6.30
2015,09,27,01,56,6.30
2015,09,27,01,57,6.30
2015,09,27,01,58,6.30
2015,09,27,01,59,6.30
2015,09,27,02,00,6.20
2015,09,27,02,01,6.20
2015,09,27,02,02,6.20
2015,09,27,02,03,6.20
2015,09,27,02,04,6.20
2015,09,27,02,05,6.20
2015,09,27,02,06,6.20
2015,09,27,02,07,6.20
2015,09,27,02,08,6.20
2015,09,27,02,09,6.20
2015,09,27,02,10,6.20
2015,09,27,02,11,6.20
2015,09,27,02,12,6.10
2015,09,27,02,13,6.10
2015,09,27,02,14,6.10
2015,09,27,02,15,6.10
2015,09,27,02,16,6.10
2015,09,27,02,17,6.00
2015,09,27,02,18,6.00
2015,09,27,02,19,6.00
2015,09,27,02,20,6.00
2015,09,27,02,21,6.00
2015,09,27,02,22,6.00
2015,09,27,02,23,6.00
2015,09,27,02,24,6.00
2015,09,27,02,25,6.00
2015,09,27,02,26,6.00
2015,09,27,02,27,6.00
2015,09,27,02,28,6.00
2015,09,27,02,29,6.00
2015,09,27,02,30,5.90
2015,09,27,02,31,5.90
2015,09,27,02,32,5.90
2015,09,27,02,33,5.90
2015,09,27,02,34,5.90
2015,09,27,02,35,5.90
2015,09,27,02,36,5.90
2015,09,27,02,37,5.90
2015,09,27,02,38,5.90
2015,09,27,02,39,5.80
2015,09,27,02,40,5.80
2015,09,27,02,41,5.80
2015,09,27,02,42,5.80
2015,09,27,02,43,5.80
2015,09,27,02,44,5.80
2015,09,27,02,45,5.80
2015,09,27,02,46,5.70
2015,09,27,02,47,5.70
2015,09,27,02,48,5.70
2015,09,27,02,49,5.70
2015,09,27,02,50,5.70
2015,09,27,02,51,5.70
2015,09,27,02,52,5.70
2015,09,27,02,53,5.70
2015,09,27,02,54,5.70
2015,09,27,02,55,5.60
2015,09,27,02,56,5.60
2015,09,27,02,57,5.60
2015,09,27,02,58,5.60
2015,09,27,02,59,5.60
2015,09,27,03,00,5.60
2015,09,27,03,01,5.60
2015,09,27,03,02,5.60
2015,09,27,03,03,5.50
2015,09,27,03,04,5.50
2015,09,27,03,05,5.50
2015,09,27,03,06,5.50
2015,09,27,03,07,5.50
2015,09,27,03,08,5.50
2015,09,27,03,09,5.40
2015,09,27,03,10,5.40
2015,09,27,03,11,5.40
2015,09,27,03,12,5.40
2015,09,27,03,13,5.40
2015,09,27,03,14,5.40
2015,09,27,03,15,5.40
2015,09,27,03,16,5.40
2015,09,27,03,17,5.40
2015,09,27,03,18,5.30
2015,09,27,03,19,5.30
2015,09,27,03,20,5.30
2015,09,27,03,21,5.30
2015,09,27,03,22,5.30
2015,09,27,03,23,5.30
2015,09,27,03,24,5.30
2015,09,27,03,25,5.30
2015,09,27,03,26,5.30
2015,09,27,03,27,5.30
2015,09,27,03,28,5.30
2015,09,27,03,29,5.30
2015,09,27,03,30,5.30
2015,09,27,03,31,5.30
2015,09,27,03,32,5.30
2015,09,27,03,33,5.30
2015,09,27,03,34,5.30
2015,09,27,03,35,5.30
2015,09,27,03,36,5.20
2015,09,27,03,37,5.20
2015,09,27,03,38,5.20
2015,09,27,03,39,5.20
2015,09,27,03,40,5.20
2015,09,27,03,41,5.10
2015,09,27,03,42,5.10
2015,09,27,03,43,5.10
2015,09,27,03,44,5.10
2015,09,27,03,45,5.10
2015,09,27,03,46,5.10
2015,09,27,03,47,5.10
2015,09,27,03,48,5.10
2015,09,27,03,49,5.10
2015,09,27,03,50,5.10
2015,09,27,03,51,5.10
2015,09,27,03,52,5.10
2015,09,27,03,53,5.10
2015,09,27,03,54,5.10
2015,09,27,03,55,5.10
2015,09,27,03,56,5.10
2015,09,27,03,57,5.10
2015,09,27,03,58,5.10
2015,09,27,03,59,5.10
2015,09,27,04,00,5.10
2015,09,27,04,01,5.10
2015,09,27,04,02,5.10
2015,09,27,04,03,5.10
2015,09,27,04,04,5.10
2015,09,27,04,05,5.10
2015,09,27,04,06,5.10
2015,09,27,04,07,5.10
2015,09,27,04,08,5.00
2015,09,27,04,09,4.90
2015,09,27,04,10,4.90
2015,09,27,04,11,4.90
2015,09,27,04,12,4.90
2015,09,27,04,13,4.90
2015,09,27,04,14,4.90
2015,09,27,04,15,4.90
2015,09,27,04,16,4.90
2015,09,27,04,17,4.90
2015,09,27,04,18,4.90
2015,09,27,04,19,4.90
2015,09,27,04,20,4.90
2015,09,27,04,21,4.90
2015,09,27,04,22,4.90
2015,09,27,04,23,4.90
2015,09,27,04,24,4.90
2015,09,27,04,25,4.90
2015,09,27,04,26,4.90
2015,09,27,04,27,4.90
2015,09,27,04,28,4.90
2015,09,27,04,29,4.90
2015,09,27,04,30,4.90
2015,09,27,04,31,4.90
2015,09,27,04,32,4.90
2015,09,27,04,33,4.90
2015,09,27,04,34,4.90
2015,09,27,04,35,4.90
2015,09,27,04,36,4.90
2015,09,27,04,37,4.90
2015,09,27,04,38,4.90
2015,09,27,04,39,4.90
2015,09,27,04,40,4.80
2015,09,27,04,41,4.80
2015,09,27,04,42,4.80
2015,09,27,04,43,4.80
2015,09,27,04,44,4.80
2015,09,27,04,45,4.80
2015,09,27,04,46,4.80
2015,09,27,04,47,4.70
2015,09,27,04,48,4.70
2015,09,27,04,49,4.70
2015,09,27,04,50,4.70
2015,09,27,04,51,4.70
2015,09,27,04,52,4.70
2015,09,27,04,53,4.70
2015,09,27,04,54,4.70
2015,09,27,04,55,4.70
2015,09,27,04,56,4.70
2015,09,27,04,57,4.70
2015,09,27,04,58,4.70
2015,09,27,04,59,4.70
2015,09,27,05,00,4.70
2015,09,27,05,01,4.70
2015,09,27,05,02,4.70
2015,09,27,05,03,4.60
2015,09,27,05,04,4.60
2015,09,27,05,05,4.60
2015,09,27,05,06,4.60
2015,09,27,05,07,4.60
2015,09,27,05,08,4.60
2015,09,27,05,09,4.60
2015,09,27,05,10,4.60
2015,09,27,05,11,4.60
2015,09,27,05,12,4.60
2015,09,27,05,13,4.60
2015,09,27,05,14,4.50
2015,09,27,05,15,4.50
2015,09,27,05,16,4.50
2015,09,27,05,17,4.50
2015,09,27,05,18,4.50
2015,09,27,05,19,4.50
2015,09,27,05,20,4.50
2015,09,27,05,21,4.50
2015,09,27,05,22,4.40
2015,09,27,05,23,4.40
2015,09,27,05,24,4.40
2015,09,27,05,25,4.40
2015,09,27,05,26,4.40
2015,09,27,05,27,4.30
2015,09,27,05,28,4.30
2015,09,27,05,29,4.30
2015,09,27,05,30,4.30
2015,09,27,05,31,4.30
2015,09,27,05,32,4.30
2015,09,27,05,33,4.30
2015,09,27,05,34,4.30
2015,09,27,05,35,4.30
2015,09,27,05,36,4.30
2015,09,27,05,37,4.30
2015,09,27,05,38,4.30
2015,09,27,05,39,4.30
2015,09,27,05,40,4.20
2015,09,27,05,41,4.20
2015,09,27,05,42,4.20
2015,09,27,05,43,4.20
2015,09,27,05,44,4.20
2015,09,27,05,45,4.20
2015,09,27,05,46,4.20
2015,09,27,05,47,4.20
2015,09,27,05,48,4.20
2015,09,27,05,49,4.20
2015,09,27,05,50,4.20
2015,09,27,05,51,4.20
2015,09,27,05,52,4.20
2015,09,27,05,53,4.20
2015,09,27,05,54,4.20
2015,09,27,05,55,4.20
2015,09,27,05,56,4.20
2015,09,27,05,57,4.20
2015,09,27,05,58,4.20
2015,09,27,05,59,4.20
2015,09,27,06,00,4.20
2015,09,27,06,01,4.20
2015,09,27,06,02,4.10
2015,09,27,06,03,4.10
2015,09,27,06,04,4.10
2015,09,27,06,05,4.10
2015,09,27,06,06,4.10
2015,09,27,06,07,4.10
2015,09,27,06,08,4.10
2015,09,27,06,09,4.10
2015,09,27,06,10,4.10
2015,09,27,06,11,4.10
2015,09,27,06,12,4.10
2015,09,27,06,13,4.10
2015,09,27,06,14,4.10
2015,09,27,06,15,4.10
2015,09,27,06,16,4.10
2015,09,27,06,17,4.10
2015,09,27,06,18,4.10
2015,09,27,06,19,4.10
2015,09,27,06,20,4.10
2015,09,27,06,21,4.00
2015,09,27,06,22,4.00
2015,09,27,06,23,4.00
2015,09,27,06,24,4.00
2015,09,27,06,25,4.00
2015,09,27,06,26,4.00
2015,09,27,06,27,4.00
2015,09,27,06,28,3.90
2015,09,27,06,29,3.90
2015,09,27,06,30,3.90
2015,09,27,06,31,3.90
2015,09,27,06,32,3.90
2015,09,27,06,33,3.90
2015,09,27,06,34,3.90
2015,09,27,06,35,3.90
2015,09,27,06,36,3.90
2015,09,27,06,37,3.90
2015,09,27,06,38,3.80
2015,09,27,06,39,3.80
2015,09,27,06,40,3.80
2015,09,27,06,41,3.80
2015,09,27,06,42,3.80
2015,09,27,06,43,3.80
2015,09,27,06,44,3.80
2015,09,27,06,45,3.80
2015,09,27,06,46,3.80
2015,09,27,06,47,3.80
2015,09,27,06,48,3.80
2015,09,27,06,49,3.80
2015,09,27,06,50,3.80
2015,09,27,06,51,3.80
2015,09,27,06,52,3.80
2015,09,27,06,53,3.80
2015,09,27,06,54,3.80
2015,09,27,06,55,3.80
2015,09,27,06,56,3.80
2015,09,27,06,57,3.80
2015,09,27,06,58,3.80
2015,09,27,06,59,3.80
2015,09,27,07,00,3.80
2015,09,27,07,01,3.80
2015,09,27,07,02,3.80
2015,09,27,07,03,3.80
2015,09,27,07,04,3.80
2015,09,27,07,05,3.80
2015,09,27,07,06,3.70
2015,09,27,07,07,3.70
2015,09,27,07,08,3.70
2015,09,27,07,09,3.70
2015,09,27,07,10,3.70
2015,09,27,07,11,3.70
2015,09,27,07,12,3.70
2015,09,27,07,13,3.70
2015,09,27,07,14,3.70
2015,09,27,07,15,3.70
2015,09,27,07,16,3.70
2015,09,27,07,17,3.70
2015,09,27,07,18,3.70
2015,09,27,07,19,3.70
2015,09,27,07,20,3.70
2015,09,27,07,21,3.70
2015,09,27,07,22,3.70
2015,09,27,07,23,3.70
2015,09,27,07,24,3.70
2015,09,27,07,25,3.70
2015,09,27,07,26,3.70
2015,09,27,07,27,3.70
2015,09,27,07,28,3.70
2015,09,27,07,29,3.70
2015,09,27,07,30,3.70
2015,09,27,07,31,3.70
2015,09,27,07,32,3.70
2015,09,27,07,33,3.70
2015,09,27,07,34,3.70
2015,09,27,07,35,3.70
2015,09,27,07,36,3.70
2015,09,27,07,37,3.70
2015,09,27,07,38,3.70
2015,09,27,07,39,3.70
2015,09,27,07,40,3.70
2015,09,27,07,41,3.70
2015,09,27,07,42,3.70
2015,09,27,07,43,3.70
2015,09,27,07,44,3.70
2015,09,27,07,45,3.70
2015,09,27,07,46,3.70
2015,09,27,07,47,3.70
2015,09,27,07,48,3.70
2015,09,27,07,49,3.70
2015,09,27,07,50,3.70
2015,09,27,07,51,3.70
2015,09,27,07,52,3.70
2015,09,27,07,53,3.70
2015,09,27,07,54,3.70
2015,09,27,07,55,3.70
2015,09,27,07,56,3.70
2015,09,27,07,57,3.70
2015,09,27,07,58,3.80
2015,09,27,07,59,3.80
2015,09,27,08,00,3.80
2015,09,27,08,01,3.80
2015,09,27,08,02,3.80
2015,09,27,08,03,3.80
2015,09,27,08,04,3.80
2015,09,27,08,05,3.80
2015,09,27,08,06,3.80
2015,09,27,08,07,3.80
2015,09,27,08,08,3.80
2015,09,27,08,09,3.80
2015,09,27,08,10,3.80
2015,09,27,08,11,3.80
2015,09,27,08,12,3.80
2015,09,27,08,13,3.80
2015,09,27,08,14,3.90
2015,09,27,08,15,3.90
2015,09,27,08,16,3.90
2015,09,27,08,17,3.90
2015,09,27,08,18,3.90
2015,09,27,08,19,4.00
2015,09,27,08,20,4.00
2015,09,27,08,21,4.00
2015,09,27,08,22,4.00
2015,09,27,08,23,4.10
2015,09,27,08,24,4.10
2015,09,27,08,25,4.10
2015,09,27,08,26,4.10
2015,09,27,08,27,4.20
2015,09,27,08,28,4.20
2015,09,27,08,29,4.20
2015,09,27,08,30,4.20
2015,09,27,08,31,4.20
2015,09,27,08,32,4.20
2015,09,27,08,33,4.30
2015,09,27,08,34,4.30
2015,09,27,08,35,4.30
2015,09,27,08,36,4.40
2015,09,27,08,37,4.40
2015,09,27,08,38,4.40
2015,09,27,08,39,4.40
2015,09,27,08,40,4.50
2015,09,27,08,41,4.50
2015,09,27,08,42,4.50
2015,09,27,08,43,4.60
2015,09,27,08,44,4.60
2015,09,27,08,45,4.60
2015,09,27,08,46,4.60
2015,09,27,08,47,4.60
2015,09,27,08,48,4.70
2015,09,27,08,49,4.70
2015,09,27,08,50,4.80
2015,09,27,08,51,4.80
2015,09,27,08,52,4.90
2015,09,27,08,53,4.90
2015,09,27,08,54,4.90
2015,09,27,08,55,4.90
2015,09,27,08,56,5.00
2015,09,27,08,57,5.10
2015,09,27,08,58,5.10
2015,09,27,08,59,5.10
2015,09,27,09,00,5.20
2015,09,27,09,01,5.30
2015,09,27,09,02,5.30
2015,09,27,09,03,5.30
2015,09,27,09,04,5.40
2015,09,27,09,05,5.50
2015,09,27,09,06,5.60
2015,09,27,09,07,5.70
2015,09,27,09,08,5.80
2015,09,27,09,09,5.90
2015,09,27,09,10,6.00
2015,09,27,09,11,6.10
2015,09,27,09,12,6.20
2015,09,27,09,13,6.30
2015,09,27,09,14,6.40
2015,09,27,09,15,6.50
2015,09,27,09,16,6.60
2015,09,27,09,17,6.70
2015,09,27,09,18,6.80
2015,09,27,09,19,6.80
2015,09,27,09,20,6.90
2015,09,27,09,21,6.90
2015,09,27,09,22,7.00
2015,09,27,09,23,7.10
2015,09,27,09,24,7.10
2015,09,27,09,25,7.20
2015,09,27,09,26,7.30
2015,09,27,09,27,7.30
2015,09,27,09,28,7.30
2015,09,27,09,29,7.30
2015,09,27,09,30,7.30
2015,09,27,09,31,7.40
2015,09,27,09,32,7.40
2015,09,27,09,33,7.50
2015,09,27,09,34,7.50
2015,09,27,09,35,7.60
2015,09,27,09,36,7.70
2015,09,27,09,37,7.90
2015,09,27,09,38,8.00
2015,09,27,09,39,8.20
2015,09,27,09,40,8.20
2015,09,27,09,41,8.30
2015,09,27,09,42,8.40
2015,09,27,09,43,8.50
2015,09,27,09,44,8.60
2015,09,27,09,45,8.70
2015,09,27,09,46,8.90
2015,09,27,09,47,9.00
2015,09,27,09,48,9.20
2015,09,27,09,49,9.30
2015,09,27,09,50,9.40
2015,09,27,09,51,9.50
2015,09,27,09,52,9.50
2015,09,27,09,53,9.60
2015,09,27,09,54,9.70
2015,09,27,09,55,9.80
2015,09,27,09,56,9.90
2015,09,27,09,57,9.90
2015,09,27,09,58,10.00
2015,09,27,09,59,10.10
2015,09,27,10,00,10.20
2015,09,27,10,01,10.30
2015,09,27,10,02,10.30
2015,09,27,10,03,10.40
2015,09,27,10,04,10.50
2015,09,27,10,05,10.60
2015,09,27,10,06,10.60
2015,09,27,10,07,10.70
2015,09,27,10,08,10.80
2015,09,27,10,09,10.90
2015,09,27,10,10,10.90
2015,09,27,10,11,10.90
2015,09,27,10,12,11.00
2015,09,27,10,13,11.10
2015,09,27,10,14,11.10
2015,09,27,10,15,11.20
2015,09,27,10,16,11.20
2015,09,27,10,17,11.20
2015,09,27,10,18,11.20
2015,09,27,10,19,11.30
2015,09,27,10,20,11.30
2015,09,27,10,21,11.30
2015,09,27,10,22,11.20
2015,09,27,10,23,11.20
2015,09,27,10,24,11.20
2015,09,27,10,25,11.20
2015,09,27,10,26,11.20
2015,09,27,10,27,11.20
2015,09,27,10,28,11.20
2015,09,27,10,29,11.20
2015,09,27,10,30,11.20
2015,09,27,10,31,11.20
2015,09,27,10,32,11.30
2015,09,27,10,33,11.30
2015,09,27,10,34,11.30
2015,09,27,10,35,11.30
2015,09,27,10,36,11.30
2015,09,27,10,37,11.30
2015,09,27,10,38,11.40
2015,09,27,10,39,11.40
2015,09,27,10,40,11.40
2015,09,27,10,41,11.40
2015,09,27,10,42,11.40
2015,09,27,10,43,11.40
2015,09,27,10,44,11.40
2015,09,27,10,45,11.40
2015,09,27,10,46,11.40
2015,09,27,10,47,11.40
2015,09,27,10,48,11.40
2015,09,27,10,49,11.40
2015,09,27,10,50,11.40
2015,09,27,10,51,11.50
2015,09,27,10,52,11.60
2015,09,27,10,53,11.60
2015,09,27,10,54,11.60
2015,09,27,10,55,11.70
2015,09,27,10,56,11.70
2015,09,27,10,57,11.80
2015,09,27,10,58,11.80
2015,09,27,10,59,11.80
2015,09,27,11,00,11.80
2015,09,27,11,01,11.80
2015,09,27,11,02,11.80
2015,09,27,11,03,11.80
2015,09,27,11,04,11.80
2015,09,27,11,05,11.80
2015,09,27,11,06,11.80
2015,09,27,11,07,11.80
2015,09,27,11,08,11.80
2015,09,27,11,09,11.80
2015,09,27,11,10,11.80
2015,09,27,11,11,11.80
2015,09,27,11,12,11.80
2015,09,27,11,13,11.80
2015,09,27,11,14,11.80
2015,09,27,11,15,11.80
2015,09,27,11,16,11.80
2015,09,27,11,17,11.80
2015,09,27,11,18,11.80
2015,09,27,11,19,11.80
2015,09,27,11,20,11.80
2015,09,27,11,21,11.80
2015,09,27,11,22,11.80
2015,09,27,11,23,11.80
2015,09,27,11,24,11.80
2015,09,27,11,25,11.90
2015,09,27,11,26,11.90
2015,09,27,11,27,11.90
2015,09,27,11,28,11.90
2015,09,27,11,29,11.90
2015,09,27,11,30,11.90
2015,09,27,11,31,11.90
2015,09,27,11,32,11.90
2015,09,27,11,33,11.90
2015,09,27,11,34,12.00
2015,09,27,11,35,12.00
2015,09,27,11,36,12.00
2015,09,27,11,37,12.10
2015,09,27,11,38,12.20
2015,09,27,11,39,12.20
2015,09,27,11,40,12.20
2015,09,27,11,41,12.20
2015,09,27,11,42,12.30
2015,09,27,11,43,12.30
2015,09,27,11,44,12.30
2015,09,27,11,45,12.30
2015,09,27,11,46,12.30
2015,09,27,11,47,12.30
2015,09,27,11,48,12.30
2015,09,27,11,49,12.30
2015,09,27,11,50,12.30
2015,09,27,11,51,12.30
2015,09,27,11,52,12.30
2015,09,27,11,53,12.40
2015,09,27,11,54,12.40
2015,09,27,11,55,12.40
2015,09,27,11,56,12.40
2015,09,27,11,57,12.40
2015,09,27,11,58,12.50
2015,09,27,11,59,12.50
2015,09,27,12,00,12.50
2015,09,27,12,01,12.50
2015,09,27,12,02,12.50
2015,09,27,12,03,12.50
2015,09,27,12,04,12.50
2015,09,27,12,05,12.60
2015,09,27,12,06,12.60
2015,09,27,12,07,12.70
2015,09,27,12,08,12.70
2015,09,27,12,09,12.70
2015,09,27,12,10,12.80
2015,09,27,12,11,12.80
2015,09,27,12,12,12.80
2015,09,27,12,13,12.80
2015,09,27,12,14,12.80
2015,09,27,12,15,12.80
2015,09,27,12,16,12.80
2015,09,27,12,17,12.80
2015,09,27,12,18,12.80
2015,09,27,12,19,12.80
2015,09,27,12,20,12.80
2015,09,27,12,21,12.90
2015,09,27,12,22,12.90
2015,09,27,12,23,12.90
2015,09,27,12,24,13.00
2015,09,27,12,25,13.00
2015,09,27,12,26,13.00
2015,09,27,12,27,13.00
2015,09,27,12,28,13.10
2015,09,27,12,29,13.10
2015,09,27,12,30,13.00
2015,09,27,12,31,13.00
2015,09,27,12,32,13.00
2015,09,27,12,33,13.00
2015,09,27,12,34,13.00
2015,09,27,12,35,13.00
2015,09,27,12,36,13.00
2015,09,27,12,37,13.10
2015,09,27,12,38,13.10
2015,09,27,12,39,13.10
2015,09,27,12,40,13.10
2015,09,27,12,41,13.20
2015,09,27,12,42,13.20
2015,09,27,12,43,13.20
2015,09,27,12,44,13.20
2015,09,27,12,45,13.20
2015,09,27,12,46,13.30
2015,09,27,12,47,13.30
2015,09,27,12,48,13.30
2015,09,27,12,49,13.30
2015,09,27,12,50,13.30
2015,09,27,12,51,13.30
2015,09,27,12,52,13.30
2015,09,27,12,53,13.40
2015,09,27,12,54,13.40
2015,09,27,12,55,13.40
2015,09,27,12,56,13.40
2015,09,27,12,57,13.50
2015,09,27,12,58,13.50
2015,09,27,12,59,13.50
2015,09,27,13,00,13.50
2015,09,27,13,01,13.50
2015,09,27,13,02,13.60
2015,09,27,13,03,13.60
2015,09,27,13,04,13.60
2015,09,27,13,05,13.60
2015,09,27,13,06,13.60
2015,09,27,13,07,13.60
2015,09,27,13,08,13.70
2015,09,27,13,09,13.70
2015,09,27,13,10,13.70
2015,09,27,13,11,13.70
2015,09,27,13,12,13.70
2015,09,27,13,13,13.70
2015,09,27,13,14,13.80
2015,09,27,13,15,13.80
2015,09,27,13,16,13.80
2015,09,27,13,17,13.90
2015,09,27,13,18,13.90
2015,09,27,13,19,14.00
2015,09,27,13,20,14.00
2015,09,27,13,21,14.10
2015,09,27,13,22,14.10
2015,09,27,13,23,14.10
2015,09,27,13,24,14.10
2015,09,27,13,25,14.10
2015,09,27,13,26,14.10
2015,09,27,13,27,14.10
2015,09,27,13,28,14.10
2015,09,27,13,29,14.10
2015,09,27,13,30,14.10
2015,09,27,13,31,14.10
2015,09,27,13,32,14.10
2015,09,27,13,33,14.10
2015,09,27,13,34,14.10
2015,09,27,13,35,14.20
2015,09,27,13,36,14.20
2015,09,27,13,37,14.20
2015,09,27,13,38,14.20
2015,09,27,13,39,14.20
2015,09,27,13,40,14.20
2015,09,27,13,41,14.20
2015,09,27,13,42,14.20
2015,09,27,13,43,14.20
2015,09,27,13,44,14.20
2015,09,27,13,45,14.20
2015,09,27,13,46,14.20
2015,09,27,13,47,14.20
2015,09,27,13,48,14.20
2015,09,27,13,49,14.20
2015,09,27,13,50,14.20
2015,09,27,13,51,14.20
2015,09,27,13,52,14.20
2015,09,27,13,53,14.20
2015,09,27,13,54,14.30
2015,09,27,13,55,14.40
2015,09,27,13,56,14.40
2015,09,27,13,57,14.40
2015,09,27,13,58,14.50
2015,09,27,13,59,14.50
2015,09,27,14,00,14.50
2015,09,27,14,01,14.60
2015,09,27,14,02,14.60
2015,09,27,14,03,14.70
2015,09,27,14,04,14.70
2015,09,27,14,05,14.70
2015,09,27,14,06,14.80
2015,09,27,14,07,14.80
2015,09,27,14,08,14.80
2015,09,27,14,09,14.90
2015,09,27,14,10,15.00
2015,09,27,14,11,15.00
2015,09,27,14,12,15.10
2015,09,27,14,13,15.20
2015,09,27,14,14,15.30
2015,09,27,14,15,15.30
2015,09,27,14,16,15.30
2015,09,27,14,17,15.40
2015,09,27,14,18,15.40
2015,09,27,14,19,15.50
2015,09,27,14,20,15.50
2015,09,27,14,21,15.50
2015,09,27,14,22,15.50
2015,09,27,14,23,15.50
2015,09,27,14,24,15.60
2015,09,27,14,25,15.60
2015,09,27,14,26,15.60
2015,09,27,14,27,15.60
2015,09,27,14,28,15.60
2015,09,27,14,29,15.70
2015,09,27,14,30,15.70
2015,09,27,14,31,15.70
2015,09,27,14,32,15.60
2015,09,27,14,33,15.60
2015,09,27,14,34,15.60
2015,09,27,14,35,15.70
2015,09,27,14,36,15.70
2015,09,27,14,37,15.70
2015,09,27,14,38,15.80
2015,09,27,14,39,15.80
2015,09,27,14,40,15.80
2015,09,27,14,41,15.80
2015,09,27,14,42,15.80
2015,09,27,14,43,15.80
2015,09,27,14,44,15.80
2015,09,27,14,45,15.80
2015,09,27,14,46,15.80
2015,09,27,14,47,15.80
2015,09,27,14,48,15.80
2015,09,27,14,49,15.80
2015,09,27,14,50,15.80
2015,09,27,14,51,15.80
2015,09,27,14,52,15.80
2015,09,27,14,53,15.80
2015,09,27,14,54,15.80
2015,09,27,14,55,15.80
2015,09,27,14,56,15.80
2015,09,27,14,57,15.80
2015,09,27,14,58,15.80
2015,09,27,14,59,15.80
2015,09,27,15,00,15.80
2015,09,27,15,01,15.80
2015,09,27,15,02,15.80
2015,09,27,15,03,15.80
2015,09,27,15,04,15.80
2015,09,27,15,05,15.80
2015,09,27,15,06,15.80
2015,09,27,15,07,15.80
2015,09,27,15,08,15.80
2015,09,27,15,09,15.80
2015,09,27,15,10,15.80
2015,09,27,15,11,15.80
2015,09,27,15,12,15.80
2015,09,27,15,13,15.80
2015,09,27,15,14,15.70
2015,09,27,15,15,15.60
2015,09,27,15,16,15.60
2015,09,27,15,17,15.50
2015,09,27,15,18,15.50
2015,09,27,15,19,15.50
2015,09,27,15,20,15.50
2015,09,27,15,21,15.50
2015,09,27,15,22,15.50
2015,09,27,15,23,15.50
2015,09,27,15,24,15.40
2015,09,27,15,25,15.40
2015,09,27,15,26,15.30
2015,09,27,15,27,15.30
2015,09,27,15,28,15.30
2015,09,27,15,29,15.30
2015,09,27,15,30,15.30
2015,09,27,15,31,15.30
2015,09,27,15,32,15.30
2015,09,27,15,33,15.30
2015,09,27,15,34,15.30
2015,09,27,15,35,15.30
2015,09,27,15,36,15.30
2015,09,27,15,37,15.30
2015,09,27,15,38,15.30
2015,09,27,15,39,15.30
2015,09,27,15,40,15.30
2015,09,27,15,41,15.30
2015,09,27,15,42,15.30
2015,09,27,15,43,15.30
2015,09,27,15,44,15.30
2015,09,27,15,45,15.30
2015,09,27,15,46,15.30
2015,09,27,15,47,15.30
2015,09,27,15,48,15.30
2015,09,27,15,49,15.30
2015,09,27,15,50,15.30
2015,09,27,15,51,15.30
2015,09,27,15,52,15.30
2015,09,27,15,53,15.30
2015,09,27,15,54,15.30
2015,09,27,15,55,15.30
2015,09,27,15,56,15.30
2015,09,27,15,57,15.30
2015,09,27,15,58,15.30
2015,09,27,15,59,15.30
2015,09,27,16,00,15.30
2015,09,27,16,01,15.30
2015,09,27,16,02,15.20
2015,09,27,16,03,15.20
2015,09,27,16,04,15.20
2015,09,27,16,05,15.20
2015,09,27,16,06,15.20
2015,09,27,16,07,15.20
2015,09,27,16,08,15.20
2015,09,27,16,09,15.20
2015,09,27,16,10,15.30
2015,09,27,16,11,15.30
2015,09,27,16,12,15.30
2015,09,27,16,13,15.30
2015,09,27,16,14,15.30
2015,09,27,16,15,15.30
2015,09,27,16,16,15.30
2015,09,27,16,17,15.30
2015,09,27,16,18,15.30
2015,09,27,16,19,15.30
2015,09,27,16,20,15.30
2015,09,27,16,21,15.30
2015,09,27,16,22,15.30
2015,09,27,16,23,15.30
2015,09,27,16,24,15.30
2015,09,27,16,25,15.30
2015,09,27,16,26,15.30
2015,09,27,16,27,15.30
2015,09,27,16,28,15.30
2015,09,27,16,29,15.30
2015,09,27,16,30,15.30
2015,09,27,16,31,15.30
2015,09,27,16,32,15.30
2015,09,27,16,33,15.20
2015,09,27,16,34,15.20
2015,09,27,16,35,15.20
2015,09,27,16,36,15.20
2015,09,27,16,37,15.10
2015,09,27,16,38,15.10
2015,09,27,16,39,15.10
2015,09,27,16,40,15.00
2015,09,27,16,41,15.00
2015,09,27,16,42,14.90
2015,09,27,16,43,14.90
2015,09,27,16,44,14.80
2015,09,27,16,45,14.80
2015,09,27,16,46,14.80
2015,09,27,16,47,14.80
2015,09,27,16,48,14.70
2015,09,27,16,49,14.70
2015,09,27,16,50,14.60
2015,09,27,16,51,14.60
2015,09,27,16,52,14.60
2015,09,27,16,53,14.50
2015,09,27,16,54,14.50
2015,09,27,16,55,14.40
2015,09,27,16,56,14.40
2015,09,27,16,57,14.30
2015,09,27,16,58,14.30
2015,09,27,16,59,14.20
2015,09,27,17,00,14.20
2015,09,27,17,01,14.20
2015,09,27,17,02,14.20
2015,09,27,17,03,14.20
2015,09,27,17,04,14.20
2015,09,27,17,05,14.20
2015,09,27,17,06,14.20
2015,09,27,17,07,14.20
2015,09,27,17,08,14.10
2015,09,27,17,09,14.10
2015,09,27,17,10,14.10
2015,09,27,17,11,14.10
2015,09,27,17,12,14.10
2015,09,27,17,13,14.10
2015,09,27,17,14,14.10
2015,09,27,17,15,14.10
2015,09,27,17,16,14.10
2015,09,27,17,17,14.10
2015,09,27,17,18,14.10
2015,09,27,17,19,14.10
2015,09,27,17,20,14.00
2015,09,27,17,21,14.00
2015,09,27,17,22,14.00
2015,09,27,17,23,14.00
2015,09,27,17,24,14.00
2015,09,27,17,25,14.00
2015,09,27,17,26,14.00
2015,09,27,17,27,14.00
2015,09,27,17,28,13.90
2015,09,27,17,29,13.90
2015,09,27,17,30,13.90
2015,09,27,17,31,13.90
2015,09,27,17,32,13.90
2015,09,27,17,33,13.90
2015,09,27,17,34,13.90
2015,09,27,17,35,13.90
2015,09,27,17,36,13.90
2015,09,27,17,37,13.90
2015,09,27,17,38,13.90
2015,09,27,17,39,13.90
2015,09,27,17,40,13.90
2015,09,27,17,41,13.90
2015,09,27,17,42,13.90
2015,09,27,17,43,13.90
2015,09,27,17,44,13.90
2015,09,27,17,45,13.90